Temperature
17 17 17 17 17 17 17 17 17 17 17 17 17 17 17 17 16 16 16 16 16 16 16 16 16 16 16 16 16 16 16 16 16 16 16 16 16 16 16 16 16 16 15
17 17 17 17 17 17 17 17 17 17 17 17 17 17 17 17 17 16 16 16 16 16 16 16 16 16 16 16 16 16 16 16 16 16 16 16 16 16 16 16 15 15 15
17 17 17 17 17 17 17 17 17 17 17 17 17 17 17 17 17 16 16 16 16 16 16 16 16 16 16 16 15 15 15 15 15 15 16 16 16 15 15 15 15 15 15
17 17 17 17 17 17 17 17 17 17 17 17 17 17 17 17 16 16 16 16 16 16 16 16 16 15 15 15 15 15 15 15 15 15 15 15 15 15 15 15 15 15 15
17 17 17 17 17 17 17 17 17 17 17 17 17 16 16 16 16 16 16 16 16 16 16 15 15 15 15 15 15 15 15 15 15 15 15 15 15 15 15 14 14 14 15
17 17 17 17 17 17 17 17 17 17 17 16 16 16 16 16 16 16 16 16 16 16 15 15 15 15 15 15 15 14 14 14 14 14 14 14 14 14 14 14 14 14 14
17 17 17 17 17 17 17 17 16 16 16 16 16 16 16 16 16 16 16 16 15 15 15 15 15 15 14 14 14 14 14 14 14 14 13 13 13 13 13 13 13 13 13
17 17 17 17 17 17 17 16 16 16 16 16 16 16 16 16 16 15 15 15 15 15 15 15 14 14 14 14 14 13 13 13 13 13 13 13 13 13 12 12 12 12 12
17 17 17 17 17 16 16 16 16 16 16 16 16 15 15 15 15 15 15 15 15 14 14 14 14 14 14 13 13 13 13 13 12 12 12 12 12 12 12 12 12 11 12
17 17 17 17 16 16 16 16 16 16 15 15 15 15 15 15 14 14 14 14 14 14 14 13 13 13 13 13 12 12 12 12 12 12 11 11 11 11 11 11 11 11 11
16 16 16 16 16 16 16 15 15 15 15 15 14 14 14 14 14 14 14 14 13 13 13 13 12 12 12 12 12 12 11 11 11 11 11 11 11 11 11 10 10 10 10
16 16 16 15 15 15 15 15 14 14 14 14 14 13 13 13 13 13 13 13 13 12 12 12 12 11 11 11 11 11 10 10 10 10 10 10 10 10 10 10 10 9 9
15 15 15 15 14 14 14 14 14 13 13 13 13 13 12 12 12 12 12 12 12 12 11 11 11 10 10 10 10 10 10 10 9 9 9 9 9 9 9 9 9 9 9
14 14 14 14 13 13 13 13 13 13 13 12 12 12 12 11 11 11 11 11 11 11 10 10 10 10 9 9 9 9 9 8 8 8 8 8 8 8 8 8 8 8 8
13 13 13 13 13 13 12 12 12 12 12 12 11 11 11 11 10 10 10 10 10 9 9 9 9 9 9 8 8 8 8 8 7 7 7 7 7 7 7 7 7 7 7
13 12 12 12 12 12 12 11 11 11 10 10 10 10 10 10 9 9 9 9 9 9 9 8 8 8 7 7 7 7 7 7 6 6 6 6 6 6 6 6 6 6 6
12 12 12 12 11 11 11 11 10 10 9 9 9 9 9 9 8 8 8 8 8 8 8 7 7 7 6 6 6 6 6 5 5 5 5 5 5 5 5 5 5 5 5
11 11 11 11 11 11 10 10 10 10 9 8 8 8 8 8 8 8 7 7 7 7 7 6 6 5 5 5 5 5 4 4 4 4 4 4 4 4 4 4 4 4 4
11 11 11 10 10 10 10 9 9 9 8 8 8 7 7 7 7 7 7 6 6 6 5 5 5 5 4 4 4 4 4 3 3 3 3 3 3 3 3 3 3 3 3
10 10 10 10 10 9 9 9 8 8 8 7 7 7 7 7 6 6 6 5 5 5 4 4 4 4 3 3 3 3 3 3 3 2 2 2 2 2 2 2 2 2 2
10 10 10 10 9 9 9 8 8 8 7 7 6 6 6 6 6 5 5 4 4 4 4 3 3 3 3 3 2 2 2 2 2 2 2 2 2 2 2 2 2 2 2
10 10 9 9 9 8 8 8 7 7 7 6 6 6 5 5 5 4 4 4 3 3 3 2 2 2 2 2 2 1 1 1 1 1 1 1 1 1 1 1 1 1 1
9 9 9 9 8 8 7 7 7 7 6 6 5 5 5 4 4 4 3 3 3 2 2 2 2 2 1 1 1 1 1 1 1 1 1 1 1 1 1 1 1 1 1
9 9 8 8 8 7 7 7 6 6 5 5 5 4 4 4 3 3 3 2 2 2 2 1 1 1 1 1 1 0 0 0 0 0 0 0 0 0 0 0 0 1 0
8 8 8 8 7 7 6 6 6 5 5 5 4 4 4 3 3 3 2 2 2 2 1 1 1 1 1 0 0 0 0 0 0 0 0 0 0 -0 -0 -0 0 0 0
8 8 7 7 7 6 6 6 5 5 4 4 4 3 3 3 2 2 2 1 1 1 1 1 1 0 0 0 0 0 0 0 0 0 0 -0 -0 -0 -0 -0 -0 -0 0
Wind_Speed
9 8 8 8 8 8 8 8 8 7 8 8 8 8 8 7 7 7 6 6 6 5 3 4 4 3 2 1 1 2 2 3 3 4 3 2 3 4 5 11 13 13 15
9 8 8 8 8 8 8 8 8 8 8 9 8 8 8 8 7 8 7 7 7 6 6 4 5 3 3 1 1 1 1 2 4 4 3 2 3 4 3 4 7 10 13
9 9 8 8 9 9 8 8 8 8 8 7 7 8 8 8 8 8 7 6 7 7 6 6 5 4 4 3 2 2 2 1 2 3 3 2 2 2 1 3 4 5 8
10 9 9 9 9 9 8 8 8 8 8 8 7 7 7 7 7 7 6 6 5 5 5 5 5 6 6 5 4 4 3 2 2 2 2 3 3 3 1 3 3 3 4
10 10 10 9 8 8 8 8 8 8 9 8 6 5 5 5 6 6 6 6 5 4 3 3 4 5 6 5 4 4 3 3 2 2 3 2 3 2 3 3 4 4 4
10 10 9 8 8 8 8 7 7 7 6 6 6 6 5 4 5 7 6 5 4 4 3 2 2 2 3 4 4 4 5 4 4 3 3 3 4 3 3 2 2 2 4
9 8 7 8 8 8 8 7 7 7 6 6 6 5 5 4 6 7 8 5 4 4 4 3 2 2 3 2 3 3 3 3 4 4 4 4 4 4 3 3 3 4 5
8 8 8 7 7 6 7 7 6 5 5 5 5 4 3 3 4 5 6 5 4 3 3 3 3 2 1 2 2 1 2 3 3 3 4 5 5 4 4 4 4 4 5
8 8 8 8 7 7 7 6 5 5 5 4 4 4 3 2 2 3 4 3 3 2 2 2 2 1 1 1 2 1 2 3 4 4 5 5 6 6 4 1 2 2 4
7 7 7 7 7 7 7 6 5 5 6 6 5 5 5 4 5 5 5 4 4 2 2 3 3 2 2 2 2 1 1 3 3 4 3 5 5 5 4 2 2 2 3
6 7 7 7 8 8 7 6 7 7 8 7 7 6 6 5 6 7 7 4 3 3 2 2 2 4 5 4 3 1 1 2 2 3 3 4 3 3 3 2 2 3 4
10 10 8 8 7 8 9 8 8 9 9 7 7 7 6 6 7 7 9 8 6 4 3 2 3 5 6 6 4 4 5 4 3 3 3 4 4 4 4 4 4 4 5
12 12 11 11 10 9 9 9 8 8 8 7 7 7 6 6 7 11 11 9 9 5 4 5 6 7 6 6 7 7 6 4 3 3 3 3 3 4 4 4 5 4 4
13 11 11 12 11 11 9 8 8 8 8 8 8 7 6 6 6 6 6 6 8 7 6 7 9 10 9 8 7 6 5 4 3 2 3 3 4 4 4 4 4 4 4
12 11 11 11 11 11 11 9 9 7 7 9 7 6 7 6 5 6 5 5 4 5 5 6 7 6 7 7 6 6 5 5 5 4 4 4 5 5 4 4 4 3 3
11 10 9 9 9 10 12 12 16 13 15 14 11 10 7 8 9 12 12 12 12 11 9 7 7 6 6 6 6 6 5 6 5 5 4 4 5 5 5 4 4 4 4
11 9 9 9 9 9 9 10 10 10 13 14 13 13 12 11 13 13 14 14 14 12 9 7 6 6 5 5 5 5 5 5 5 5 5 5 5 5 5 5 5 5 5
10 10 9 8 8 8 8 8 8 9 8 7 9 12 13 14 13 13 13 11 9 8 6 6 5 5 4 5 5 5 5 5 5 5 5 6 6 6 6 6 5 6 6
9 7 8 8 8 8 8 8 8 8 7 6 5 7 10 11 13 13 11 8 6 6 5 5 4 4 4 4 4 4 5 5 5 5 5 6 6 6 6 6 6 8 7
8 11 11 9 8 8 8 8 7 7 7 6 5 4 4 7 7 7 6 6 6 5 4 4 4 4 4 4 4 4 5 5 5 5 5 6 6 5 6 7 7 7 7
7 9 12 10 8 8 8 8 7 7 7 6 5 6 8 7 6 6 5 5 4 4 3 3 3 3 3 3 3 4 5 4 4 5 6 6 6 6 6 7 7 7 7
8 8 8 8 8 8 8 7 7 7 7 7 5 6 10 7 6 5 5 4 3 3 2 2 2 2 2 2 2 3 4 4 5 6 6 7 7 7 7 7 7 7 7
8 9 9 8 8 10 9 7 7 7 7 6 6 6 6 5 5 5 4 3 3 3 5 5 4 4 5 6 6 4 3 4 5 6 7 7 7 7 7 7 9 9 8
9 9 9 8 8 8 8 7 7 7 6 6 6 5 5 5 4 4 3 3 4 5 6 6 6 5 6 6 7 7 8 9 10 9 8 7 8 7 7 7 8 9 9
8 8 8 8 8 7 7 7 6 6 6 6 5 5 5 4 4 4 3 4 5 5 6 7 6 6 6 7 8 10 12 14 13 12 10 8 7 8 8 8 8 8 8
8 8 7 7 7 7 7 6 6 6 6 5 5 4 4 4 4 4 3 4 3 4 5 6 7 7 7 8 10 12 14 15 16 16 12 8 6 7 8 7 9 8 8
Wind_Direction
173 171 168 172 173 173 177 179 178 178 176 178 180 180 181 181 180 179 187 186 190 204 208 201 215 202 185 161 134 136 151 159 204 267 264 263 212 226 218 222 232 235 238
173 166 167 168 170 175 181 182 179 179 181 181 179 182 188 187 184 186 196 196 197 206 214 208 222 211 202 207 180 190 199 189 190 243 278 272 234 230 224 225 234 238 241
170 168 168 170 175 181 184 183 179 177 176 177 175 185 191 191 191 193 195 196 200 206 206 203 211 196 210 218 210 212 228 218 183 203 259 274 271 262 235 250 249 253 254
171 173 176 180 183 185 182 180 179 175 174 177 180 185 191 191 192 194 192 194 195 202 204 201 203 196 204 209 214 219 218 224 212 210 251 273 271 275 236 247 269 262 260
171 179 186 182 179 179 177 176 176 178 179 175 175 177 180 183 192 188 187 189 188 196 206 210 217 210 207 204 211 215 212 220 229 229 247 268 272 274 252 243 250 272 275
176 183 184 177 176 178 179 177 176 175 169 161 169 173 174 191 187 183 183 187 181 186 202 219 226 216 213 202 203 196 191 203 221 226 240 245 258 255 254 246 247 270 283
173 177 175 176 179 181 180 171 174 175 165 162 174 172 178 193 186 180 180 175 170 182 192 195 215 214 201 199 216 212 207 216 207 204 226 239 245 241 239 253 241 237 248
167 170 170 168 173 170 165 169 176 168 165 167 168 174 178 201 186 176 176 168 164 178 186 184 191 225 210 189 190 213 249 260 245 223 230 246 248 247 234 236 243 258 268
168 171 172 170 167 163 164 167 161 146 144 142 143 146 138 105 113 137 148 138 132 128 118 115 138 137 336 160 135 206 292 302 297 273 262 269 274 273 259 251 279 272 281
162 161 157 154 152 153 154 147 138 134 131 123 105 97 102 88 74 92 121 122 118 104 74 63 70 77 51 86 118 134 298 302 327 342 338 320 312 308 290 239 235 248 268
126 120 121 126 127 128 123 117 116 114 110 106 99 84 80 78 71 76 91 102 114 108 87 51 29 46 55 59 72 74 315 322 338 341 336 332 330 333 326 305 249 229 239
102 100 98 99 108 114 110 106 107 109 105 101 97 82 63 56 60 68 74 76 79 87 71 50 43 47 52 50 49 35 33 32 20 7 358 348 341 335 325 322 309 280 258
97 94 92 87 83 89 100 105 102 100 103 99 92 85 66 50 47 54 58 59 63 74 70 63 55 50 52 49 45 40 39 36 26 18 359 340 329 325 330 329 330 326 315
98 96 94 92 86 79 79 85 93 97 101 97 93 89 76 56 45 42 46 53 56 62 63 58 57 56 52 43 37 37 38 37 39 21 351 336 340 352 355 347 341 340 338
94 94 92 92 94 87 79 70 80 74 97 104 102 101 94 74 43 51 65 61 60 67 70 60 52 47 43 36 33 30 28 28 26 12 10 1 354 353 344 341 340 343 336
98 96 96 97 96 97 96 81 63 77 80 85 93 99 84 86 77 69 68 69 70 75 75 66 58 51 45 37 33 25 23 19 12 10 10 5 357 350 342 341 344 340 327
103 103 104 105 106 105 105 106 98 73 67 71 77 82 85 82 75 70 71 73 68 71 72 67 60 52 45 37 31 28 19 9 9 14 11 0 352 346 343 340 339 335 328
96 100 103 105 108 108 107 106 106 105 92 64 56 70 75 74 71 67 69 71 59 57 66 68 59 52 47 39 31 25 17 12 13 11 7 0 355 350 346 340 335 327 319
92 96 97 100 104 107 106 102 100 98 95 85 68 55 61 68 66 63 65 72 75 64 60 59 54 50 42 33 26 22 20 15 9 5 359 353 348 344 338 332 326 322 317
93 100 104 103 103 104 104 103 101 99 94 87 79 71 65 70 66 57 59 69 74 72 68 61 51 48 42 36 31 27 22 12 2 357 346 340 334 328 323 320 320 318 313
92 96 99 101 102 103 103 103 102 101 98 92 83 81 92 88 83 74 67 63 66 68 67 63 57 46 40 39 37 29 20 1 349 340 333 326 322 318 313 311 312 312 311
93 93 95 100 100 99 100 99 99 99 99 96 84 77 80 82 81 77 68 61 59 57 67 65 56 44 47 49 38 24 6 348 335 328 321 316 314 311 311 310 313 314 312
94 95 93 94 97 100 97 95 97 99 97 95 94 86 80 80 78 77 69 60 57 59 59 66 67 55 53 51 45 34 357 329 316 312 312 312 311 310 310 309 309 311 313
96 98 98 97 97 98 99 96 95 97 98 96 93 90 87 85 80 72 62 53 60 60 60 68 74 69 56 41 24 8 352 337 328 318 309 301 304 306 307 307 305 305 308
97 99 100 100 101 101 100 99 98 97 99 101 100 97 94 87 77 64 53 58 66 66 63 63 61 52 40 25 10 357 349 346 342 335 322 307 301 304 305 305 305 306 307
97 100 101 102 102 103 105 105 103 104 105 106 104 100 97 89 81 72 62 63 64 66 65 62 52 40 27 13 1 354 352 350 347 344 334 317 306 307 312 308 307 308 309
Height
1501 1504 1507 1511 1515 1519 1522 1525 1528 1532 1534 1537 1539 1541 1543 1544 1546 1548 1550 1551 1553 1554 1555 1556 1558 1559 1560 1561 1561 1562 1562 1562 1562 1562 1562 1562 1562 1563 1563 1563 1563 1563 1563
1500 1503 1506 1509 1513 1516 1519 1523 1526 1529 1532 1534 1536 1538 1540 1542 1543 1545 1547 1549 1551 1552 1553 1554 1555 1556 1557 1558 1559 1559 1559 1560 1560 1559 1559 1559 1559 1560 1560 1560 1560 1559 1559
1499 1502 1505 1508 1511 1514 1517 1521 1524 1527 1529 1532 1534 1535 1537 1538 1540 1542 1545 1547 1548 1549 1551 1552 1553 1554 1554 1555 1556 1556 1556 1557 1556 1556 1556 1556 1556 1556 1556 1556 1556 1555 1555
1498 1501 1503 1506 1509 1512 1516 1519 1522 1524 1527 1529 1531 1532 1533 1535 1537 1539 1542 1544 1545 1547 1548 1549 1550 1551 1551 1552 1552 1553 1553 1553 1553 1553 1552 1552 1552 1552 1552 1552 1551 1551 1550
1497 1499 1502 1505 1508 1511 1514 1517 1520 1523 1525 1527 1529 1529 1531 1532 1534 1537 1539 1541 1542 1544 1545 1546 1547 1548 1548 1549 1549 1549 1549 1549 1549 1549 1548 1548 1548 1548 1548 1547 1546 1546 1545
1496 1498 1501 1504 1507 1510 1513 1515 1518 1521 1523 1525 1526 1528 1529 1531 1532 1534 1537 1538 1539 1540 1542 1543 1543 1544 1544 1545 1545 1545 1545 1545 1545 1545 1544 1544 1543 1543 1543 1542 1541 1541 1539
1495 1497 1500 1503 1505 1508 1511 1514 1516 1518 1520 1522 1525 1526 1527 1529 1531 1532 1534 1535 1536 1537 1538 1539 1540 1540 1541 1541 1541 1541 1541 1540 1541 1541 1540 1539 1539 1538 1538 1537 1536 1535 1534
1493 1496 1498 1501 1504 1506 1509 1511 1513 1516 1518 1520 1522 1524 1525 1527 1528 1529 1530 1532 1532 1533 1534 1535 1536 1536 1537 1537 1537 1536 1536 1536 1536 1535 1535 1534 1534 1533 1532 1532 1530 1529 1528
1491 1493 1496 1499 1501 1504 1506 1508 1510 1513 1515 1517 1519 1521 1523 1524 1525 1526 1528 1528 1529 1530 1531 1532 1532 1532 1533 1533 1533 1533 1532 1532 1532 1531 1530 1530 1529 1528 1527 1526 1525 1524 1522
1489 1492 1494 1497 1499 1501 1503 1506 1508 1511 1513 1515 1516 1518 1520 1521 1522 1523 1525 1525 1526 1527 1528 1528 1529 1529 1529 1529 1529 1529 1528 1528 1528 1527 1526 1525 1525 1524 1523 1522 1520 1519 1517
1488 1491 1493 1495 1497 1499 1502 1504 1506 1508 1510 1512 1514 1516 1517 1519 1520 1521 1522 1523 1524 1525 1525 1526 1526 1526 1526 1526 1526 1525 1525 1525 1524 1523 1522 1521 1520 1519 1518 1517 1516 1515 1513
1487 1489 1492 1494 1496 1498 1501 1503 1505 1507 1509 1510 1512 1514 1516 1518 1519 1519 1520 1522 1522 1523 1523 1524 1524 1524 1523 1523 1523 1522 1522 1521 1520 1519 1518 1517 1516 1515 1513 1512 1511 1510 1509
1487 1489 1491 1494 1496 1498 1500 1503 1505 1507 1509 1511 1512 1514 1515 1517 1517 1518 1519 1520 1520 1521 1522 1522 1522 1522 1521 1521 1520 1520 1519 1518 1517 1516 1515 1514 1513 1511 1509 1508 1506 1505 1504
1488 1490 1492 1495 1497 1499 1501 1503 1505 1507 1509 1512 1514 1515 1516 1517 1518 1518 1519 1520 1520 1521 1521 1521 1521 1520 1520 1519 1519 1518 1517 1516 1515 1514 1513 1511 1510 1508 1506 1504 1502 1500 1498
1491 1493 1495 1498 1500 1501 1503 1505 1507 1509 1511 1513 1515 1516 1517 1518 1519 1519 1519 1520 1520 1521 1521 1521 1520 1520 1519 1519 1518 1517 1516 1515 1514 1512 1511 1509 1507 1505 1503 1501 1498 1496 1494
1494 1496 1498 1501 1503 1504 1505 1508 1511 1513 1515 1516 1518 1518 1518 1520 1520 1521 1521 1521 1522 1522 1522 1521 1520 1520 1519 1519 1518 1516 1515 1513 1512 1510 1508 1506 1504 1502 1500 1498 1495 1493 1490
1498 1499 1501 1504 1506 1508 1509 1511 1513 1516 1517 1519 1519 1520 1521 1522 1522 1523 1523 1523 1523 1523 1522 1521 1521 1520 1519 1518 1517 1516 1514 1513 1511 1509 1507 1504 1502 1499 1497 1494 1492 1490 1487
1502 1504 1506 1508 1510 1511 1513 1515 1516 1517 1519 1520 1522 1523 1524 1524 1524 1524 1525 1524 1523 1523 1522 1522 1521 1520 1519 1518 1516 1515 1513 1511 1509 1507 1504 1502 1500 1497 1494 1492 1489 1486 1484
1507 1508 1510 1512 1514 1515 1517 1518 1519 1521 1522 1523 1524 1525 1526 1526 1526 1526 1525 1525 1524 1524 1523 1522 1522 1521 1519 1518 1516 1514 1512 1510 1507 1505 1502 1500 1497 1495 1492 1489 1486 1483 1480
1511 1512 1513 1515 1517 1518 1519 1521 1522 1523 1524 1525 1526 1527 1527 1527 1527 1527 1526 1526 1525 1525 1524 1523 1522 1520 1519 1517 1515 1513 1511 1508 1506 1503 1500 1497 1494 1492 1489 1486 1483 1480 1477
1514 1516 1517 1518 1520 1521 1522 1523 1524 1525 1526 1527 1528 1528 1529 1528 1528 1528 1528 1527 1526 1525 1524 1523 1522 1520 1518 1516 1514 1512 1509 1506 1503 1500 1497 1494 1491 1488 1485 1482 1479 1476 1473
1517 1519 1520 1521 1522 1524 1525 1526 1527 1527 1528 1529 1529 1530 1530 1530 1529 1529 1528 1528 1527 1526 1525 1523 1521 1519 1517 1515 1513 1510 1507 1504 1501 1498 1495 1492 1488 1485 1482 1479 1476 1473 1470
1521 1522 1523 1524 1525 1526 1527 1528 1529 1529 1530 1530 1531 1531 1531 1531 1530 1530 1529 1528 1527 1525 1524 1523 1521 1519 1517 1514 1511 1508 1505 1502 1499 1495 1492 1488 1485 1482 1479 1476 1473 1470 1468
1523 1524 1525 1526 1527 1528 1529 1530 1530 1531 1531 1532 1532 1532 1532 1531 1531 1530 1529 1528 1527 1525 1524 1522 1520 1518 1515 1513 1510 1507 1503 1500 1496 1492 1489 1485 1482 1479 1476 1474 1471 1468 1466
1526 1526 1527 1528 1529 1530 1530 1531 1532 1532 1533 1533 1533 1533 1532 1532 1531 1530 1529 1528 1526 1525 1523 1521 1519 1517 1514 1511 1508 1504 1501 1497 1494 1490 1486 1483 1480 1477 1474 1471 1469 1466 1463
1528 1528 1529 1530 1531 1532 1532 1533 1533 1533 1533 1533 1533 1533 1533 1532 1531 1530 1529 1527 1526 1524 1522 1520 1518 1515 1512 1509 1506 1502 1499 1495 1491 1488 1484 1480 1477 1475 1472 1469 1466 1464 1461